| time (UTC) | temp F | wind direction | speed MPH | gust MPH | rain 1hr in | rain 24hr in | rain mn in | humidity % | barometer mb |
| 20260506172434 | 55 | 10 | 8.0 | 14.0 | 0.00 | 0.00 | 0.00 | 68 | 1011.2 |
| 20260506171913 | 55 | 34 | 6.0 | 13.0 | 0.00 | 0.00 | 0.00 | 66 | 1011.2 |
| 20260506170916 | 56 | 33 | 7.0 | 16.0 | 0.00 | 0.00 | 0.00 | 65 | 1011.1 |
| 20260506165433 | 56 | 57 | 10.0 | 17.0 | 0.00 | 0.00 | 0.00 | 65 | 1011.0 |
| 20260506164431 | 57 | 40 | 7.0 | 16.0 | 0.00 | 0.00 | 0.00 | 64 | 1011.1 |
| 20260506163429 | 57 | 41 | 6.0 | 19.0 | 0.00 | 0.00 | 0.00 | 63 | 1011.1 |
| 20260506162428 | 57 | 30 | 10.0 | 19.0 | 0.00 | 0.00 | 0.00 | 62 | 1011.1 |
| 20260506161429 | 57 | 74 | 6.0 | 17.0 | 0.00 | 0.00 | 0.00 | 64 | 1011.1 |
| 20260506160428 | 56 | 34 | 10.0 | 17.0 | 0.00 | 0.00 | 0.00 | 67 | 1011.1 |
| 20260506155425 | 55 | 34 | 8.0 | 17.0 | 0.00 | 0.00 | 0.00 | 67 | 1010.9 |
| 20260506154424 | 0 | 67 | 8.0 | 19.0 | 0.00 | 0.00 | 0.00 | 1010.9 | |
| 20260506153421 | 0 | 24 | 8.0 | 17.0 | 0.00 | 0.00 | 0.00 | 1010.9 | |
| 20260506152423 | 58 | 33 | 10.0 | 18.0 | 0.00 | 0.00 | 0.00 | 68 | 1011.0 |
| 20260506151418 | 57 | 51 | 9.0 | 17.0 | 0.00 | 0.00 | 0.00 | 68 | 1010.8 |
| 20260506150418 | 0 | 51 | 8.0 | 16.0 | 0.00 | 0.00 | 0.00 | 1010.8 | |
| 20260506145418 | 57 | 34 | 10.0 | 16.0 | 0.00 | 0.00 | 0.00 | 68 | 1010.8 |
| 20260506144418 | 59 | 27 | 10.0 | 16.0 | 0.00 | 0.00 | 0.00 | 67 | 1010.7 |
| 20260506143416 | 60 | 55 | 11.0 | 19.0 | 0.00 | 0.00 | 0.00 | 65 | 1010.7 |
| 20260506142417 | 60 | 44 | 10.0 | 17.0 | 0.00 | 0.00 | 0.00 | 67 | 1010.6 |
| 20260506141413 | 59 | 38 | 11.0 | 19.0 | 0.00 | 0.00 | 0.00 | 69 | 1010.6 |
| 20260506140410 | 58 | 30 | 9.0 | 17.0 | 0.00 | 0.00 | 0.00 | 71 | 1010.7 |
| 20260506135410 | 57 | 36 | 8.0 | 19.0 | 0.00 | 0.00 | 0.00 | 69 | 1010.7 |
| 20260506134847 | 59 | 34 | 8.0 | 19.0 | 0.00 | 0.00 | 0.00 | 68 | 1010.6 |
| 20260506133407 | 59 | 31 | 10.0 | 19.0 | 0.00 | 0.00 | 0.00 | 67 | 1010.4 |
| 20260506132409 | 59 | 33 | 12.0 | 18.0 | 0.00 | 0.00 | 0.00 | 68 | 1010.6 |
| 20260506131407 | 59 | 54 | 9.0 | 17.0 | 0.00 | 0.00 | 0.00 | 68 | 1010.5 |
| 20260506130408 | 58 | 37 | 10.0 | 21.0 | 0.00 | 0.00 | 0.00 | 68 | 1010.4 |
| 20260506124406 | 59 | 43 | 8.0 | 20.0 | 0.00 | 0.00 | 0.00 | 65 | 1010.3 |
| 20260506123406 | 60 | 65 | 7.0 | 21.0 | 0.00 | 0.00 | 0.00 | 65 | 1010.3 |
| 20260506122405 | 60 | 69 | 11.0 | 21.0 | 0.00 | 0.00 | 0.00 | 63 | 1010.3 |
| 20260506121850 | 60 | 7 | 9.0 | 20.0 | 0.00 | 0.00 | 0.00 | 66 | 1010.3 |
| 20260506120407 | 60 | 34 | 11.0 | 22.0 | 0.00 | 0.00 | 0.00 | 66 | 1010.1 |
| 20260506115413 | 60 | 26 | 10.0 | 17.0 | 0.00 | 0.00 | 0.00 | 67 | 1010.2 |
| 20260506114403 | 59 | 57 | 8.0 | 18.0 | 0.00 | 0.00 | 0.00 | 65 | 1010.2 |
| 20260506112406 | 58 | 60 | 10.0 | 17.0 | 0.00 | 0.00 | 0.00 | 67 | 1010.1 |
| 20260506111404 | 58 | 17 | 7.0 | 19.0 | 0.00 | 0.00 | 0.00 | 68 | 1010.1 |
| 20260506110405 | 59 | 36 | 9.0 | 15.0 | 0.00 | 0.00 | 0.00 | 68 | 1010.1 |
| 20260506105405 | 60 | 43 | 7.0 | 18.0 | 0.00 | 0.00 | 0.00 | 65 | 1010.0 |
| 20260506104403 | 61 | 78 | 9.0 | 16.0 | 0.00 | 0.00 | 0.00 | 69 | 1010.1 |
| 20260506103404 | 59 | 82 | 6.0 | 16.0 | 0.00 | 0.00 | 0.00 | 63 | 1010.1 |
| 20260506102407 | 59 | 14 | 12.0 | 22.0 | 0.00 | 0.00 | 0.00 | 68 | 1009.9 |
| 20260506101405 | 59 | 16 | 10.0 | 17.0 | 0.00 | 0.00 | 0.00 | 71 | 1010.0 |
| 20260506100403 | 58 | 38 | 6.0 | 15.0 | 0.00 | 0.00 | 0.00 | 71 | 1010.0 |
| 20260506095403 | 58 | 38 | 6.0 | 13.0 | 0.00 | 0.00 | 0.00 | 74 | 1009.9 |
| 20260506094403 | 56 | 43 | 7.0 | 13.0 | 0.00 | 0.00 | 0.00 | 71 | 1009.9 |
| 20260506093402 | 57 | 38 | 10.0 | 19.0 | 0.00 | 0.00 | 0.00 | 73 | 1009.8 |
| 20260506092402 | 57 | 65 | 7.0 | 20.0 | 0.00 | 0.00 | 0.00 | 72 | 1009.8 |
| 20260506091847 | 57 | 72 | 7.0 | 15.0 | 0.00 | 0.00 | 0.00 | 71 | 1009.8 |
| 20260506090410 | 58 | 27 | 6.0 | 15.0 | 0.00 | 0.00 | 0.00 | 74 | 1009.7 |
| 20260506085400 | 56 | 43 | 8.0 | 19.0 | 0.00 | 0.00 | 0.00 | 73 | 1009.9 |
| 20260506084359 | 56 | 27 | 9.0 | 18.0 | 0.00 | 0.00 | 0.00 | 73 | 1009.8 |
| 20260506083400 | 55 | 24 | 5.0 | 18.0 | 0.00 | 0.00 | 0.00 | 73 | 1009.7 |
| 20260506082834 | 55 | 54 | 9.0 | 16.0 | 0.00 | 0.00 | 0.00 | 75 | 1009.7 |
| 20260506081359 | 55 | 64 | 6.0 | 16.0 | 0.00 | 0.00 | 0.00 | 77 | 1009.6 |
| 20260506080356 | 55 | 51 | 9.0 | 17.0 | 0.00 | 0.00 | 0.00 | 79 | 1009.6 |
| 20260506073358 | 54 | 16 | 9.0 | 14.0 | 0.00 | 0.00 | 0.00 | 83 | 1009.5 |
| 20260506072409 | 53 | 62 | 6.0 | 12.0 | 0.00 | 0.00 | 0.00 | 84 | 1009.5 |
| 20260506071357 | 53 | 33 | 6.0 | 14.0 | 0.00 | 0.00 | 0.00 | 85 | 1009.6 |
| 20260506070357 | 52 | 37 | 9.0 | 16.0 | 0.00 | 0.00 | 0.00 | 86 | 1009.5 |
| 20260506062229 | 50 | 27 | 6.0 | 13.0 | 0.00 | 0.00 | 0.00 | 92 | 1009.3 |
| 20260506060751 | 50 | 40 | 6.0 | 12.0 | 0.00 | 0.00 | 0.00 | 92 | 1009.3 |
| 20260506051234 | 48 | 303 | 4.0 | 10.0 | 0.00 | 0.00 | 0.00 | 90 | 1009.2 |
| 20260506044223 | 48 | 40 | 6.0 | 12.0 | 0.00 | 0.00 | 0.00 | 90 | 1009.3 |
| 20260506043224 | 48 | 27 | 4.0 | 10.0 | 0.00 | 0.00 | 0.00 | 89 | 1009.3 |
| 20260506042223 | 48 | 29 | 4.0 | 13.0 | 0.00 | 0.00 | 0.00 | 89 | 1009.3 |
| 20260506041223 | 48 | 31 | 6.0 | 11.0 | 0.00 | 0.00 | 0.00 | 89 | 1009.4 |
| 20260506035745 | 49 | 47 | 5.0 | 10.0 | 0.00 | 0.00 | 0.00 | 89 | 1009.3 |
| 20260506034743 | 49 | 26 | 4.0 | 12.0 | 0.00 | 0.00 | 0.00 | 89 | 1009.3 |
| 20260506033745 | 49 | 20 | 6.0 | 10.0 | 0.00 | 0.00 | 0.00 | 89 | 1009.4 |
| 20260506032743 | 49 | 43 | 5.0 | 14.0 | 0.00 | 0.00 | 0.00 | 89 | 1009.4 |
| 20260506032219 | 49 | 37 | 6.0 | 12.0 | 0.00 | 0.00 | 0.00 | 89 | 1009.5 |
| 20260506030740 | 49 | 26 | 5.0 | 12.0 | 0.00 | 0.00 | 0.00 | 89 | 1009.5 |
| 20260506030219 | 49 | 64 | 6.0 | 12.0 | 0.00 | 0.00 | 0.00 | 89 | 1009.6 |
| 20260506024740 | 49 | 43 | 6.0 | 13.0 | 0.00 | 0.00 | 0.00 | 89 | 1009.7 |
| 20260506024220 | 49 | 16 | 3.0 | 13.0 | 0.00 | 0.00 | 0.00 | 89 | 1009.8 |
| 20260506022739 | 49 | 33 | 6.0 | 12.0 | 0.00 | 0.00 | 0.00 | 89 | 1009.8 |
| 20260506021740 | 49 | 37 | 6.0 | 12.0 | 0.00 | 0.00 | 0.00 | 89 | 1009.9 |
| 20260506020740 | 49 | 30 | 5.0 | 12.0 | 0.00 | 0.00 | 0.00 | 89 | 1009.9 |
| 20260506015735 | 49 | 43 | 4.0 | 10.0 | 0.00 | 0.00 | 0.00 | 89 | 1010.0 |
| 20260506015211 | 49 | 17 | 8.0 | 13.0 | 0.00 | 0.00 | 0.00 | 89 | 1009.9 |
| 20260506013737 | 49 | 33 | 6.0 | 11.0 | 0.00 | 0.00 | 0.00 | 89 | 1010.0 |
| 20260506012734 | 49 | 36 | 4.0 | 10.0 | 0.00 | 0.00 | 0.00 | 89 | 1010.1 |
| 20260506011734 | 49 | 46 | 4.0 | 12.0 | 0.00 | 0.00 | 0.00 | 89 | 1010.1 |
| 20260506010736 | 49 | 31 | 6.0 | 11.0 | 0.00 | 0.00 | 0.00 | 89 | 1010.2 |
| 20260506005734 | 49 | 16 | 4.0 | 12.0 | 0.00 | 0.00 | 0.00 | 89 | 1010.4 |
| 20260506005210 | 49 | 31 | 4.0 | 12.0 | 0.00 | 0.00 | 0.00 | 88 | 1010.3 |
| 20260506003735 | 49 | 48 | 3.0 | 10.0 | 0.00 | 0.00 | 0.00 | 88 | 1010.4 |
| 20260506002734 | 49 | 320 | 6.0 | 14.0 | 0.00 | 0.00 | 0.00 | 88 | 1010.4 |
| 20260506001735 | 49 | 55 | 4.0 | 10.0 | 0.00 | 0.00 | 0.00 | 88 | 1010.4 |
| 20260506000734 | 49 | 24 | 5.0 | 11.0 | 0.00 | 0.00 | 0.00 | 88 | 1010.5 |
| 20260505235733 | 49 | 29 | 5.0 | 11.0 | 0.00 | 0.00 | 0.00 | 88 | 1010.6 |
| 20260505234733 | 49 | 27 | 4.0 | 12.0 | 0.00 | 0.00 | 0.00 | 88 | 1010.7 |
| 20260505233731 | 49 | 24 | 5.0 | 10.0 | 0.00 | 0.00 | 0.00 | 88 | 1010.7 |
| 20260505232732 | 49 | 26 | 5.0 | 11.0 | 0.00 | 0.00 | 0.00 | 88 | 1010.8 |
| 20260505231732 | 49 | 33 | 5.0 | 12.0 | 0.00 | 0.00 | 0.00 | 88 | 1010.9 |
| 20260505230732 | 49 | 26 | 7.0 | 12.0 | 0.00 | 0.00 | 0.00 | 88 | 1011.0 |
| 20260505225730 | 49 | 53 | 6.0 | 13.0 | 0.00 | 0.00 | 0.00 | 88 | 1010.9 |
| 20260505224728 | 49 | 36 | 6.0 | 12.0 | 0.00 | 0.00 | 0.00 | 88 | 1011.0 |
| 20260505224212 | 49 | 359 | 6.0 | 12.0 | 0.00 | 0.00 | 0.00 | 88 | 1011.1 |
| 20260505222729 | 49 | 29 | 3.0 | 10.0 | 0.00 | 0.00 | 0.00 | 87 | 1011.2 |
| 20260505221728 | 49 | 71 | 4.0 | 9.0 | 0.00 | 0.00 | 0.00 | 87 | 1011.2 |
| 20260505221147 | 49 | 16 | 5.0 | 9.0 | 0.00 | 0.00 | 0.00 | 87 | 1011.2 |
| 20260505215725 | 49 | 40 | 4.0 | 7.0 | 0.00 | 0.00 | 0.00 | 87 | 1011.3 |
| 20260505214724 | 49 | 12 | 4.0 | 11.0 | 0.00 | 0.00 | 0.00 | 86 | 1011.5 |
| 20260505213722 | 49 | 41 | 5.0 | 7.0 | 0.00 | 0.00 | 0.00 | 86 | 1011.4 |
| 20260505213204 | 49 | 47 | 4.0 | 7.0 | 0.00 | 0.00 | 0.00 | 86 | 1011.4 |
| 20260505211721 | 49 | 41 | 5.0 | 7.0 | 0.00 | 0.00 | 0.00 | 85 | 1011.5 |
| 20260505210827 | 49 | 17 | 2.0 | 9.0 | 0.00 | 0.00 | 0.00 | 85 | 1011.6 |
| 20260505205824 | 49 | 26 | 5.0 | 9.0 | 0.00 | 0.00 | 0.00 | 85 | 1011.6 |
| 20260505205308 | 50 | 40 | 4.0 | 7.0 | 0.00 | 0.00 | 0.00 | 84 | 1011.6 |
| 20260505203823 | 50 | 30 | 4.0 | 9.0 | 0.00 | 0.00 | 0.00 | 84 | 1011.6 |
| 20260505202824 | 50 | 10 | 6.0 | 9.0 | 0.00 | 0.00 | 0.00 | 83 | 1011.7 |
| 20260505201823 | 50 | 30 | 5.0 | 10.0 | 0.00 | 0.00 | 0.00 | 82 | 1011.6 |
| 20260505200823 | 50 | 31 | 6.0 | 11.0 | 0.00 | 0.00 | 0.00 | 81 | 1011.6 |
| 20260505195824 | 51 | 31 | 6.0 | 10.0 | 0.00 | 0.00 | 0.00 | 81 | 1011.6 |
| 20260505194822 | 51 | 41 | 5.0 | 10.0 | 0.00 | 0.00 | 0.00 | 80 | 1011.5 |
| 20260505193822 | 51 | 38 | 5.0 | 10.0 | 0.00 | 0.00 | 0.00 | 80 | 1011.5 |
| 20260505192818 | 51 | 33 | 5.0 | 13.0 | 0.00 | 0.00 | 0.00 | 79 | 1011.4 |
| 20260505191820 | 51 | 26 | 5.0 | 14.0 | 0.00 | 0.00 | 0.00 | 79 | 1011.3 |
| 20260505190820 | 51 | 37 | 4.0 | 13.0 | 0.00 | 0.00 | 0.00 | 78 | 1011.4 |
| 20260505185817 | 52 | 38 | 7.0 | 12.0 | 0.00 | 0.00 | 0.00 | 78 | 1011.4 |
| 20260505185236 | 52 | 22 | 7.0 | 12.0 | 0.00 | 0.00 | 0.00 | 78 | 1011.3 |
| 20260505184841 | 52 | 19 | 7.0 | 14.0 | 0.00 | 0.00 | 0.00 | 77 | 1011.4 |
| 20260505183408 | 52 | 46 | 4.0 | 14.0 | 0.00 | 0.00 | 0.00 | 77 | 1011.5 |
| 20260505182407 | 52 | 19 | 5.0 | 14.0 | 0.00 | 0.00 | 0.00 | 76 | 1011.4 |
| 20260505181410 | 53 | 53 | 6.0 | 12.0 | 0.00 | 0.00 | 0.00 | 76 | 1011.4 |
| 20260505180422 | 53 | 22 | 8.0 | 14.0 | 0.00 | 0.00 | 0.00 | 75 | 1011.3 |
| 20260505175408 | 53 | 38 | 6.0 | 13.0 | 0.00 | 0.00 | 0.00 | 75 | 1011.4 |
| 20260505174408 | 54 | 65 | 8.0 | 15.0 | 0.00 | 0.00 | 0.00 | 74 | 1011.3 |